Madison, SD

5:15 PM CDT on October 20, 2017 (GMT -0500)
Madison Municipal

Weather History for KMDS - June, 2013

Change the Weather History Date:

Wednesday, June 26, 2013

  Actual Average Record
Temperature  
Mean Temperature 75 °F -  
Max Temperature 84 °F 82 °F 86 °F (2016)
Min Temperature 66 °F 58 °F 44 °F (2017)
Cooling Degree Days 10    
Growing Degree Days 25 (Base 50)    
Moisture  
Dew Point 65 °F    
Average Humidity 74    
Maximum Humidity 100    
Minimum Humidity 40    
Precipitation  
Precipitation 0.00 in - - ()
Sea Level Pressure  
Sea Level Pressure 29.82 in    
Wind  
Wind Speed 9 mph (WNW)    
Max Wind Speed 18 mph    
Max Gust Speed 25 mph    
Visibility 10 miles    
Events Thunderstorm    
Averages and records for this station are not official NWS values.
T = Trace of Precipitation, MM = Missing Value Source: NWS Daily Summary

Daily Weather History Graph

Daily Weather History Graph

Search for Another Location

Airport or City:

Trip Planner

Search our weather history database for the weather conditions in past years. The results will help you decide how hot, cold, wet, or windy it might be!

Date:

Astronomy

Jun. 26, 2013 Rise Set
Actual Time 5:47 AM CDT 9:15 PM CDT
Civil Twilight 5:10 AM CDT 9:51 PM CDT
Nautical Twilight 4:23 AM CDT 10:39 PM CDT
Astronomical Twilight 3:22 AM CDT 11:40 PM CDT
Moon 11:29 PM CDT (6/26) 9:48 AM CDT (6/26)
Length of Visible Light 16h 40m
Length of Day
15h 28m
Waning Gibbous, 85% of the Moon is Illuminated
Jun 26
Waning Gibbous
Jun 29
Last Quarter
Jul 8
New
Jul 15
First Quarter
Jul 22
Full

Hourly Weather History & Observations

Time (CDT) Temp. Heat Index Dew Point Humidity Pressure Visibility Wind Dir Wind Speed Gust Speed Precip Events Conditions
12:10 AM 71.6 °F - 71.6 °F 100% 29.71 in 10.0 mi South 5.8 mph - N/A   Clear
12:30 AM 73.4 °F - 73.4 °F 100% 29.71 in 10.0 mi South 6.9 mph - N/A   Clear
12:50 AM 73.4 °F - 73.4 °F 100% 29.71 in 10.0 mi South 6.9 mph - N/A Thunderstorm Clear
1:10 AM 71.6 °F - 71.6 °F 100% 29.71 in 10.0 mi South 6.9 mph - N/A   Scattered Clouds
1:30 AM 73.4 °F - 73.4 °F 100% 29.70 in 10.0 mi South 5.8 mph - N/A Thunderstorm Overcast
1:50 AM 71.6 °F - 71.6 °F 100% 29.71 in 10.0 mi SW 5.8 mph - N/A Thunderstorm Mostly Cloudy
2:10 AM 71.6 °F - 71.6 °F 100% 29.71 in 10.0 mi WSW 8.1 mph - N/A   Partly Cloudy
2:30 AM 71.6 °F - 71.6 °F 100% 29.72 in 10.0 mi North 6.9 mph - N/A   Mostly Cloudy
2:50 AM 71.6 °F - 71.6 °F 100% 29.72 in 10.0 mi NNW 4.6 mph - N/A   Overcast
3:10 AM 71.6 °F - 71.6 °F 100% 29.71 in 10.0 mi NW 3.5 mph - N/A   Mostly Cloudy
3:30 AM 68.0 °F - 68.0 °F 100% 29.72 in 10.0 mi Calm Calm - N/A   Scattered Clouds
3:50 AM 68.0 °F - 68.0 °F 100% 29.72 in 10.0 mi WNW 5.8 mph - N/A   Clear
4:10 AM 68.0 °F - 68.0 °F 100% 29.73 in 10.0 mi NW 11.5 mph - N/A   Clear
4:30 AM 68.0 °F - 68.0 °F 100% 29.73 in 10.0 mi NW 11.5 mph - N/A   Clear
4:50 AM 68.0 °F - 68.0 °F 100% 29.74 in 10.0 mi NW 11.5 mph - N/A   Clear
5:10 AM 68.0 °F - 68.0 °F 100% 29.75 in 10.0 mi NW 15.0 mph 19.6 mph N/A   Clear
5:30 AM 66.2 °F - 66.2 °F 100% 29.76 in 10.0 mi NW 10.4 mph - N/A   Clear
5:50 AM 66.2 °F - 66.2 °F 100% 29.76 in 10.0 mi NW 8.1 mph - N/A   Clear
6:10 AM 66.2 °F - 66.2 °F 100% 29.78 in 10.0 mi NW 10.4 mph - N/A   Clear
6:30 AM 66.2 °F - 66.2 °F 100% 29.78 in 10.0 mi NW 6.9 mph - N/A   Clear
6:50 AM 68.0 °F - 68.0 °F 100% 29.79 in 10.0 mi NW 6.9 mph - N/A   Clear
7:10 AM 68.0 °F - 68.0 °F 100% 29.79 in 10.0 mi NNW 9.2 mph - N/A   Clear
7:30 AM 69.8 °F - 69.8 °F 100% 29.80 in 10.0 mi NNW 8.1 mph - N/A   Clear
7:50 AM 71.6 °F - 71.6 °F 100% 29.80 in 10.0 mi NW 11.5 mph 17.3 mph N/A   Clear
8:10 AM 71.6 °F - 69.8 °F 94% 29.80 in 10.0 mi NW 12.7 mph - N/A   Clear
8:30 AM 73.4 °F - 69.8 °F 88% 29.81 in 10.0 mi NW 11.5 mph - N/A   Clear
8:50 AM 73.4 °F - 69.8 °F 88% 29.82 in 10.0 mi NW 11.5 mph - N/A   Clear
9:10 AM 73.4 °F - 68.0 °F 83% 29.82 in 10.0 mi NW 13.8 mph - N/A   Clear
9:30 AM 73.4 °F - 68.0 °F 83% 29.83 in 10.0 mi NW 13.8 mph - N/A   Clear
9:50 AM 75.2 °F - 68.0 °F 78% 29.83 in 10.0 mi NNW 15.0 mph - N/A   Clear
10:10 AM 75.2 °F - 68.0 °F 78% 29.84 in 10.0 mi NW 12.7 mph - N/A   Clear
10:30 AM 77.0 °F - 64.4 °F 65% 29.84 in 10.0 mi NW 16.1 mph 23.0 mph N/A   Clear
10:50 AM 77.0 °F - 64.4 °F 65% 29.84 in 10.0 mi NW 17.3 mph 20.7 mph N/A   Clear
11:10 AM 77.0 °F - 64.4 °F 65% 29.85 in 10.0 mi NNW 13.8 mph 21.9 mph N/A   Clear
11:30 AM 78.8 °F - 64.4 °F 61% 29.86 in 10.0 mi NW 18.4 mph 23.0 mph N/A   Clear
11:50 AM 77.0 °F - 62.6 °F 61% 29.87 in 10.0 mi NNW 16.1 mph 24.2 mph N/A   Clear
12:10 PM 80.6 °F 81.8 °F 62.6 °F 54% 29.87 in 10.0 mi NW 15.0 mph - N/A   Clear
12:30 PM 80.6 °F 81.8 °F 62.6 °F 54% 29.88 in 10.0 mi NW 17.3 mph - N/A   Clear
12:50 PM 82.4 °F 83.4 °F 62.6 °F 51% 29.88 in 10.0 mi NW 16.1 mph 23.0 mph N/A   Clear
1:10 PM 82.4 °F 82.5 °F 59.0 °F 45% 29.88 in 10.0 mi NW 18.4 mph 25.3 mph N/A   Clear
1:30 PM 82.4 °F 82.5 °F 59.0 °F 45% 29.88 in 10.0 mi NW 17.3 mph 23.0 mph N/A   Clear
1:50 PM 82.4 °F 82.5 °F 59.0 °F 45% 29.88 in 10.0 mi NNW 17.3 mph - N/A   Clear
2:10 PM 82.4 °F 82.5 °F 59.0 °F 45% 29.88 in 10.0 mi NNW 17.3 mph 20.7 mph N/A   Clear
2:30 PM 82.4 °F 82.5 °F 59.0 °F 45% 29.87 in 10.0 mi NNW 17.3 mph 21.9 mph N/A   Clear
2:50 PM 84.2 °F 83.8 °F 59.0 °F 42% 29.87 in 10.0 mi NW 15.0 mph 20.7 mph N/A   Clear
3:10 PM 82.4 °F 82.5 °F 59.0 °F 45% 29.87 in 10.0 mi NW 13.8 mph 19.6 mph N/A   Clear
3:30 PM 84.2 °F 83.8 °F 59.0 °F 42% 29.87 in 10.0 mi NW 12.7 mph - N/A   Clear
3:50 PM 84.2 °F 83.8 °F 59.0 °F 42% 29.87 in 10.0 mi NNW 11.5 mph - N/A   Clear
4:10 PM 84.2 °F 83.8 °F 59.0 °F 42% 29.87 in 10.0 mi NW 11.5 mph 16.1 mph N/A   Clear
4:30 PM 84.2 °F 83.8 °F 59.0 °F 42% 29.87 in 10.0 mi NW 10.4 mph 17.3 mph N/A   Clear
4:50 PM 84.2 °F 83.5 °F 57.2 °F 40% 29.86 in 10.0 mi WNW 11.5 mph - N/A   Clear
5:10 PM 84.2 °F 83.8 °F 59.0 °F 42% 29.86 in 10.0 mi NW 8.1 mph - N/A   Clear
5:30 PM 84.2 °F 83.8 °F 59.0 °F 42% 29.86 in 10.0 mi WNW 10.4 mph - N/A   Clear
5:50 PM 84.2 °F 83.5 °F 57.2 °F 40% 29.86 in 10.0 mi West 10.4 mph - N/A   Clear
6:10 PM 84.2 °F 83.5 °F 57.2 °F 40% 29.86 in 10.0 mi WNW 10.4 mph - N/A   Clear
6:30 PM 84.2 °F 83.5 °F 57.2 °F 40% 29.86 in 10.0 mi WNW 9.2 mph - N/A   Clear
6:50 PM 82.4 °F 82.5 °F 59.0 °F 45% 29.86 in 10.0 mi WNW 8.1 mph - N/A   Clear
7:10 PM 82.4 °F 82.5 °F 59.0 °F 45% 29.86 in 10.0 mi West 5.8 mph - N/A   Clear
7:30 PM 80.6 °F 81.1 °F 59.0 °F 48% 29.85 in 10.0 mi WSW 4.6 mph - N/A   Clear
7:50 PM 82.4 °F 83.4 °F 62.6 °F 51% 29.86 in 10.0 mi West 3.5 mph - N/A   Clear
8:10 PM 80.6 °F 81.8 °F 62.6 °F 54% 29.86 in 10.0 mi Calm Calm - N/A   Clear
8:30 PM 80.6 °F 82.3 °F 64.4 °F 58% 29.87 in 10.0 mi SSW 3.5 mph - N/A   Clear
8:50 PM 78.8 °F - 64.4 °F 61% 29.87 in 10.0 mi Calm Calm - N/A   Clear
9:10 PM 77.0 °F - 64.4 °F 65% 29.87 in 10.0 mi South 3.5 mph - N/A   Clear
9:30 PM 75.2 °F - 64.4 °F 69% 29.87 in 10.0 mi SE 3.5 mph - N/A   Clear
9:50 PM 75.2 °F - 64.4 °F 69% 29.88 in 10.0 mi South 4.6 mph - N/A   Clear
10:10 PM 73.4 °F - 66.2 °F 78% 29.88 in 10.0 mi South 4.6 mph - N/A   Clear
10:30 PM 73.4 °F - 68.0 °F 83% 29.89 in 10.0 mi SSE 4.6 mph - N/A   Clear
10:50 PM 71.6 °F - 69.8 °F 94% 29.89 in 10.0 mi South 5.8 mph - N/A   Clear
11:10 PM 71.6 °F - 71.6 °F 100% 29.89 in 10.0 mi SSW 5.8 mph - N/A   Clear
11:30 PM 69.8 °F - 69.8 °F 100% 29.89 in 10.0 mi SSW 5.8 mph - N/A   Clear
11:50 PM 69.8 °F - 66.2 °F 88% 29.90 in 10.0 mi SW 6.9 mph - N/A   Clear